Regional Weather Roundup
Issued by NWS Cleveland, OH

Home | Current Version | Previous Version | Graphics & Text | Print | Product List | Glossary On
Versions: 1 2 3 4 5 6 7 8 9 10 11 12 13 14 15 16 17 18 19 20 21 22 23 24 25 26 27 28 29 30 31 32 33 34 35 36 37 38 39 40 41 42 43 44 45 46 47 48 49 50
000
ASUS41 KCLE 311210
RWRCLE
OHIO REGIONAL WEATHER ROUNDUP
NATIONAL WEATHER SERVICE WILMINGTON, OH
700 AM EST SAT JAN 31 2015

NOTE: "FAIR" INDICATES FEW OR NO CLOUDS BELOW 12,000 FEET WITH NO
SIGNIFICANT WEATHER AND/OR OBSTRUCTIONS TO VISIBILITY.

OHZ001>008-015>018-024>027-034-035-043-044-311300-
   NORTHWEST OHIO

CITY           SKY/WX    TMP DP  RH WIND       PRES   REMARKS
DEFIANCE       CLOUDY    17  13  84 S5        30.33R WCI  10
FINDLAY        CLEAR     12   7  80 S7        30.32S WCI   1
TOLEDO EXPRESS CLOUDY    16  11  80 SW7       30.32S WCI   6
TOLEDO EXEC    MOCLDY    16  11  80 S8        30.33F WCI   5
LIMA           FAIR      17  11  77 S9        30.31F WCI   6
$$

OHZ009>014-019>023-028>033-038-089-311300-
   NORTHEAST OHIO

CITY           SKY/WX    TMP DP  RH WIND       PRES   REMARKS
CLE-HOPKINS    MOCLDY    12   5  73 SW8       30.35F WCI   0
CLE-LAKEFRONT  CLEAR     13   5  70 S9        30.34F WCI   1
CUY CO. ARPT   MOCLDY    14   9  79 S8        30.33  WCI   3
LORAIN-ELYRIA  PTCLDY     8   4  83 SW5       30.33F WCI   0
ASHTABULA      CLOUDY     6   1  80 S5        30.34S WCI  -3
AKRON-CANTON   PTCLDY     6   1  80 SW7       30.31F WCI  -6
WOOSTER        CLEAR      4   0  83 CALM      30.32F
MANSFIELD      PTCLDY     8   5  87 S9        30.30S WCI  -5
YOUNGSTOWN     CLOUDY     7   3  84 S6        30.31F WCI  -3
$$

OHZ042-051>053-060>062-070>072-077>081-311300-
  SOUTHWEST OHIO

CITY           SKY/WX    TMP DP  RH WIND       PRES   REMARKS
CINC-COVINGTON PTCLDY    19  12  74 S3        30.35S
CINC-LUNKEN    CLEAR     14  11  87 VRB3      30.41R
HAMILTON       CLEAR     13  10  88 CALM      30.39R
DAYTON         CLEAR     19  13  77 S7        30.35R WCI  10
WRIGHT-PAT AFB CLEAR     14  11  86 SE2       30.36S
DAYTON GENERAL CLEAR     17  12  80 S5        30.34S WCI  10
WILMINGTON     CLEAR     17  11  77 S5        30.35R WCI  10
$$

OHZ036-037-039>041-045>050-054>059-063>069-073>076-082>088-311300-
  CENTRAL AND SOUTHEAST OHIO

CITY           SKY/WX    TMP DP  RH WIND       PRES   REMARKS
COLUMBUS       PTCLDY    12   8  84 CALM      30.36F
OSU AIRPORT    CLEAR     13   8  81 S5        30.35F WCI   5
BOLTON FIELD   NOT AVBL
RICKENBACK AFB CLEAR     11   8  86 S5        30.37F WCI   3
NEWARK         PTCLDY     6   1  80 CALM      30.36F
MARION         CLEAR      7   3  84 S3        30.34S
LANCASTER      CLEAR      9   5  84 CALM      30.37F
ZANESVILLE     PTCLDY     3  -2  79 CALM      30.37F
NEW PHILLY     CLEAR      3  -1  83 CALM      30.38F
$$


USA.gov is the U.S. government's official web portal to all federal, state and local government web resources and services.